Regional Weather Roundup
Issued by NWS Northern Indiana

Home | Current Version | Previous Version | Graphics & Text | Print | Product List | Glossary On
Versions: 1 2 3 4 5 6 7 8 9 10 11 12 13 14 15 16 17 18 19 20 21 22 23 24 25 26 27 28 29 30 31 32 33 34 35 36 37 38 39 40 41 42 43 44 45 46 47 48 49 50
000
ASUS43 KIWX 240900
RWRIWX

KIWX WEATHER ROUNDUP
NATIONAL WEATHER SERVICE NORTHERN INDIANA
500 AM EDT MON APR 24 2017

NOTE: "FAIR" INDICATES FEW OR NO CLOUDS BELOW 12,000 FEET WITH NO
SIGNIFICANT WEATHER AND/OR OBSTRUCTIONS TO VISIBILITY.

* THESE STATIONS ARE NOT UNDER NWS QUALITY CONTROL. THEY ALSO MAY NOT
  REPORT WEATHER SUCH AS PRECIPITATION OR FOG.

INZ001>027-241000-
NORTHERN INDIANA

CITY           SKY/WX    TMP DP  RH WIND       PRES   REMARKS
KNOX*          CLEAR     37  19  48 CALM      30.01S
SOUTH BEND     CLEAR     40  33  76 CALM      30.02S
GOSHEN         CLEAR     43  34  70 CALM      30.02S
MONTICELLO*    CLEAR     47  34  59 NE3       29.99S
ANGOLA*        CLEAR     39  39 100 CALM      30.03R
FORT WAYNE     PTCLDY    44  29  55 NE5       30.01R
PERU/GRISSOM   CLEAR     42  34  72 NE6       29.98S

$$
INZ028>050-241000-
CENTRAL INDIANA

CITY           SKY/WX    TMP DP  RH WIND       PRES   REMARKS
LAFAYETTE      CLEAR     40  37  89 CALM      29.99S
KOKOMO*        CLEAR     41  31  67 NE5       30.01R
MUNCIE*        CLEAR     41  31  67 N6        29.98F
INDIANAPOLIS   CLEAR     47  33  58 NE8       29.96F

$$
MIZ043>046-050>051-056>058-064>065-071>073-077>080-241000-
SOUTHWEST LOWER MICHIGAN

CITY           SKY/WX    TMP DP  RH WIND       PRES   REMARKS
BATTLE CREEK   CLEAR     45  42  89 E3        30.04F
BENTON HARBOR  CLEAR     34  30  85 CALM      30.02S
COLDWATER*     CLEAR     40  39  95 CALM      30.03S
HILLSDALE*     CLEAR     37  32  81 NE3       30.03S
HOLLAND        CLEAR     44  40  85 E8        30.04S
GRAND RAPIDS   CLEAR     42  39  89 E9        30.05S
KALAMAZOO      PTCLDY    44  38  79 CALM      30.03F
STURGIS*       CLEAR     42  37  83 CALM      30.01F
THREE RIVERS*  FAIR      40  36  85 CALM      30.03S

$$
OHZ001>008-015>018-024>025-241000-
NORTHWEST OHIO

CITY           SKY/WX    TMP DP  RH WIND       PRES   REMARKS
DEFIANCE       CLEAR     40  32  73 NE3       30.03R
FINDLAY        CLEAR     45  29  53 NE7       30.00S
TOLEDO EXPRESS CLEAR     42  36  79 CALM      30.03S
TOLEDO METCALF CLEAR     48  41  76 NE7       30.05R
LIMA           CLEAR     45  32  60 NE5       29.99S

$$
AND FOR LAKE MICHIGAN COASTAL AND OPEN LAKE BUOY OBSERVATIONS

STATION/POSITION TEMP    WIND        PRES    VSBY  WAVE
                 AIR SEA DIR/SP/G                  HT/PER
                 (F)     (DEG/KT/KT) (MB)    (MI)  (FT/S)
CALUMET HARBOR    43     360/  5/  7 1016.0R
MICHIGAN CITY     46     130/  1/  1   N/A
BURNS HARBOR      46      60/  4/  5 1016.9S
SOUTH LAKE BUOY   40 40   30/  4/  4 1017.4          3/ 7
4 MI NW BRIDGMAN  50 50   40/  4/  6 1016.9S         3/ 2

$$
&&



USA.gov is the U.S. government's official web portal to all federal, state and local government web resources and services.